Find CO3D F3

NORAD ID: 64900 Int'l Des: 2025-156 Owner: CNES Country: F operational
LEOCIRCULARRETROGRADESSO

Live Position

Loading 3D Globe...

About CO3D F3

Description loading...

Upcoming Passes

Passes for default location (London). Set your location on the main map for personalized predictions.

Altitude History

Loading altitude history...

Two-Line Element Set

1 64900U 25156B 26104.47117503 -.00005863 00000-0 -26801-3 0 9993
2 64900 97.4325 184.0785 0001663 56.9525 303.1870 15.20190644 39851
Epoch: Apr 14, 2026 • Age: 7 hours

Current Status

Altitude 520.7 km
Velocity 7.60 km/s
Sub-Earth Point -37.58°S, 123.02°W
Launch Date Jul 26, 2025
Age 0.7 years
Type earth observation

Technical Details

Classification Payload
Mass 285.00 kg
Dry Mass 285.00 kg
Total Mass 285.00 kg
Length 1.20 m
Diameter 0.50 m
Span 2.50 m
Shape Box+ 2 pan
Manufacturer ADST
Bus Type Astrobus-SE
Phase Status In Orbit
Owner/State CNES/F

Most Searched